Ludington, MI

11:37 AM EST on November 15, 2019 (GMT -0500)
Mason County

Weather History for KLDM - June, 2019

Change the Weather History Date:

Friday, June 7, 2019

  Actual Average Record
Temperature  
Mean Temperature 64 °F -  
Max Temperature 82 °F 74 °F 90 °F (1988)
Min Temperature 45 °F 51 °F 36 °F (1977)
Degree Days  
Heating Degree Days 2    
Growing Degree Days 14 (Base 50)    
Moisture  
Dew Point 49 °F    
Average Humidity 59    
Maximum Humidity 97    
Minimum Humidity 32    
Precipitation  
Precipitation 0.00 in - - ()
Sea Level Pressure  
Sea Level Pressure 29.99 in    
Wind  
Wind Speed 3 mph (NE)    
Max Wind Speed 13 mph    
Max Gust Speed 18 mph    
Visibility 10 miles    
Events      
Averages and records for this station are not official NWS values.
T = Trace of Precipitation, MM = Missing Value Source: NWS Daily Summary

Daily Weather History Graph

Daily Weather History Graph

Search for Another Location

Airport or City:

Astronomy

Jun. 07, 2019 Rise Set
Actual Time 6:03 AM EDT 9:25 PM EDT
Civil Twilight 5:27 AM EDT 10:01 PM EDT
Nautical Twilight 4:41 AM EDT 10:48 PM EDT
Astronomical Twilight 3:42 AM EDT 11:47 PM EDT
Moon 10:22 AM EDT (6/7) 12:40 AM EDT (6/7)
Length of Visible Light 16h 33m
Length of Day
15h 22m
Waxing Crescent, 22% of the Moon is Illuminated
Jun 7
Waxing Crescent
Jun 10
First Quarter
Jun 17
Full
Jun 25
Last Quarter
Jul 2
New

Hourly Weather History & Observations

Time (EDT) Temp. Dew Point Humidity Pressure Visibility Wind Dir Wind Speed Gust Speed Precip Events Conditions
12:15 AM 53.2 °F 45.0 °F 73% 29.95 in 10.0 mi Calm Calm - N/A   Clear
12:16 AM 52.7 °F 45.0 °F 75% 29.94 in 10.0 mi Calm Calm - N/A   Clear
12:39 AM 51.8 °F 45.0 °F 77% 29.95 in 10.0 mi Calm Calm - N/A   Clear
12:57 AM 51.3 °F 44.6 °F 78% 29.95 in 10.0 mi Calm Calm - N/A   Clear
1:15 AM 50.4 °F 43.7 °F 78% 29.95 in 10.0 mi Calm Calm - N/A   Clear
1:35 AM 49.1 °F 44.6 °F 84% 29.95 in 10.0 mi Calm Calm - N/A   Clear
1:55 AM 50.0 °F 44.8 °F 82% 29.95 in 10.0 mi Calm Calm - N/A   Clear
2:00 AM 50.9 °F 44.8 °F 80% 29.95 in 10.0 mi Calm Calm - N/A   Clear
2:18 AM 48.7 °F 43.9 °F 83% 29.95 in 10.0 mi Calm Calm - N/A   Clear
2:36 AM 49.3 °F 44.6 °F 84% 29.95 in 10.0 mi Calm Calm - N/A   Clear
2:55 AM 47.5 °F 44.4 °F 89% 29.95 in 10.0 mi Calm Calm - N/A   Clear
3:15 AM 46.8 °F 44.4 °F 92% 29.95 in 10.0 mi Calm Calm - N/A   Clear
3:39 AM 47.1 °F 44.6 °F 91% 29.95 in 10.0 mi Calm Calm - N/A   Clear
3:57 AM 47.3 °F 45.3 °F 93% 29.95 in 10.0 mi Calm Calm - N/A   Clear
4:16 AM 46.0 °F 44.6 °F 95% 29.95 in 10.0 mi Calm Calm - N/A   Clear
4:35 AM 45.5 °F 44.1 °F 95% 29.95 in 10.0 mi Calm Calm - N/A   Clear
4:55 AM 46.8 °F 45.5 °F 95% 29.96 in 10.0 mi Calm Calm - N/A   Clear
5:00 AM 47.3 °F 45.7 °F 94% 29.96 in 10.0 mi Calm Calm - N/A   Clear
5:18 AM 45.9 °F 44.4 °F 95% 29.96 in 10.0 mi Calm Calm - N/A   Clear
5:36 AM 46.0 °F 45.0 °F 96% 29.97 in 10.0 mi Calm Calm - N/A   Clear
5:55 AM 45.0 °F 44.1 °F 97% 29.97 in 10.0 mi Calm Calm - N/A   Clear
5:56 AM 45.1 °F 44.2 °F 97% 29.98 in 10.0 mi Calm Calm - N/A   Clear
6:15 AM 46.6 °F 45.1 °F 95% 29.99 in 10.0 mi Calm Calm - N/A   Clear
6:39 AM 47.5 °F 45.3 °F 92% 29.99 in 10.0 mi Calm Calm - N/A   Clear
6:57 AM 47.8 °F 45.9 °F 93% 30.00 in 10.0 mi Calm Calm - N/A   Clear
7:15 AM 50.4 °F 48.2 °F 92% 30.00 in 10.0 mi Calm Calm - N/A   Clear
7:16 AM 50.5 °F 48.4 °F 92% 30.00 in 10.0 mi Calm Calm - N/A   Clear
7:35 AM 52.3 °F 48.7 °F 88% 30.01 in 10.0 mi Calm Calm - N/A   Clear
7:36 AM 52.5 °F 48.7 °F 87% 30.01 in 10.0 mi Calm Calm - N/A   Clear
7:55 AM 56.3 °F 49.8 °F 79% 30.01 in 10.0 mi Calm Calm - N/A   Clear
8:18 AM 59.7 °F 50.9 °F 73% 30.01 in 10.0 mi Calm Calm - N/A   Clear
8:36 AM 61.9 °F 51.1 °F 68% 30.02 in 10.0 mi ENE 3.5 mph - N/A   Clear
8:55 AM 64.6 °F 51.6 °F 63% 30.02 in 10.0 mi Calm Calm - N/A   Clear
8:56 AM 64.6 °F 51.4 °F 62% 30.02 in 10.0 mi East 3.5 mph - N/A   Clear
9:15 AM 67.3 °F 51.8 °F 58% 30.02 in 10.0 mi East 4.6 mph - N/A   Clear
9:16 AM 67.3 °F 51.6 °F 57% 30.02 in 10.0 mi East 4.6 mph - N/A   Clear
9:39 AM 69.6 °F 52.9 °F 55% 30.02 in 10.0 mi ENE 3.5 mph - N/A   Clear
9:57 AM 71.8 °F 52.7 °F 51% 30.02 in 10.0 mi East 5.8 mph - N/A   Clear
10:15 AM 73.9 °F 52.2 °F 46% 30.02 in 10.0 mi East 5.8 mph - N/A   Clear
10:35 AM 75.6 °F 49.8 °F 40% 30.01 in 10.0 mi East 6.9 mph - N/A   Clear
10:36 AM 75.6 °F 49.5 °F 40% 30.01 in 10.0 mi East 6.9 mph - N/A   Clear
10:55 AM 76.6 °F 50.4 °F 40% 30.02 in 10.0 mi ESE 8.1 mph - N/A   Clear
11:00 AM 77.0 °F 50.4 °F 39% 30.02 in 10.0 mi SE 8.1 mph - N/A   Clear
11:18 AM 77.2 °F 50.2 °F 39% 30.02 in 10.0 mi ESE 9.2 mph - N/A   Clear
11:36 AM 78.1 °F 50.2 °F 38% 30.02 in 10.0 mi East 9.2 mph - N/A   Clear
11:55 AM 79.2 °F 48.9 °F 35% 30.02 in 10.0 mi SE 9.2 mph - N/A   Clear
12:15 PM 80.6 °F 49.6 °F 34% 30.02 in 10.0 mi SE 6.9 mph - N/A   Clear
12:39 PM 81.0 °F 49.6 °F 33% 30.02 in 10.0 mi ESE 8.1 mph - N/A   Clear
12:57 PM 81.5 °F 50.0 °F 33% 30.01 in 10.0 mi ESE 6.9 mph - N/A   Clear
1:15 PM 82.0 °F 50.7 °F 34% 30.01 in 10.0 mi NE 6.9 mph - N/A   Clear
1:16 PM 82.4 °F 50.7 °F 33% 30.01 in 10.0 mi NE 6.9 mph - N/A   Clear
1:35 PM 81.9 °F 49.3 °F 32% 30.01 in 10.0 mi ENE 3.5 mph 18.4 mph N/A   Clear
1:36 PM 81.7 °F 48.9 °F 32% 30.01 in 10.0 mi ENE 4.6 mph - N/A   Clear
1:55 PM 82.9 °F 50.7 °F 33% 30.00 in 10.0 mi ESE 8.1 mph - N/A   Clear
2:18 PM 80.4 °F 52.2 °F 37% 30.00 in 10.0 mi NNW 9.2 mph - N/A   Clear
2:36 PM 80.1 °F 50.9 °F 36% 30.00 in 10.0 mi NNW 8.1 mph - N/A   Clear
2:55 PM 80.2 °F 51.1 °F 36% 29.99 in 10.0 mi NW 10.4 mph - N/A   Clear
2:56 PM 80.1 °F 50.4 °F 35% 30.00 in 10.0 mi NW 10.4 mph - N/A   Clear
3:15 PM 78.4 °F 48.6 °F 35% 30.00 in 10.0 mi NNW 12.7 mph 18.4 mph N/A   Clear
3:39 PM 79.2 °F 49.3 °F 35% 29.99 in 10.0 mi NNW 12.7 mph 16.1 mph N/A   Clear
3:57 PM 78.8 °F 49.5 °F 36% 29.99 in 10.0 mi NNW 11.5 mph 16.1 mph N/A   Clear
4:15 PM 79.5 °F 49.3 °F 35% 29.99 in 10.0 mi NNW 10.4 mph - N/A   Clear
4:16 PM 79.7 °F 48.9 °F 34% 29.99 in 10.0 mi NNW 11.5 mph - N/A   Clear
4:35 PM 78.8 °F 47.3 °F 33% 29.99 in 10.0 mi North 11.5 mph - N/A   Clear
4:36 PM 78.8 °F 47.1 °F 33% 29.99 in 10.0 mi North 11.5 mph - N/A   Clear
4:55 PM 78.1 °F 47.7 °F 34% 29.99 in 10.0 mi NNW 11.5 mph 17.3 mph N/A   Clear
5:18 PM 78.3 °F 48.6 °F 35% 29.99 in 10.0 mi NNW 10.4 mph - N/A   Clear
5:36 PM 79.3 °F 49.3 °F 35% 29.98 in 10.0 mi NNW 10.4 mph - N/A   Clear
5:55 PM 78.6 °F 48.9 °F 35% 29.98 in 10.0 mi NNW 12.7 mph 17.3 mph N/A   Clear
5:56 PM 78.6 °F 48.7 °F 35% 29.98 in 10.0 mi NNW 12.7 mph 17.3 mph N/A   Clear
6:15 PM 77.4 °F 48.2 °F 36% 29.98 in 10.0 mi North 11.5 mph - N/A   Clear
6:16 PM 77.4 °F 48.4 °F 36% 29.98 in 10.0 mi North 11.5 mph - N/A   Clear
6:39 PM 77.2 °F 49.1 °F 37% 29.97 in 10.0 mi North 9.2 mph - N/A   Clear
6:57 PM 77.0 °F 48.7 °F 37% 29.98 in 10.0 mi North 8.1 mph - N/A   Clear
7:15 PM 76.5 °F 48.0 °F 37% 29.98 in 10.0 mi North 10.4 mph - N/A   Clear
7:35 PM 76.3 °F 48.9 °F 38% 29.99 in 10.0 mi North 4.6 mph - N/A   Clear
7:36 PM 76.3 °F 48.9 °F 38% 29.99 in 10.0 mi North 4.6 mph - N/A   Clear
7:55 PM 75.4 °F 49.5 °F 40% 29.99 in 10.0 mi North 9.2 mph - N/A   Clear
8:00 PM 74.8 °F 49.6 °F 41% 29.99 in 10.0 mi North 11.5 mph - N/A   Clear
8:18 PM 73.8 °F 48.9 °F 41% 29.99 in 10.0 mi North 8.1 mph - N/A   Clear
8:36 PM 72.7 °F 48.9 °F 43% 29.99 in 10.0 mi North 3.5 mph - N/A   Clear
8:55 PM 71.4 °F 48.9 °F 45% 30.00 in 10.0 mi Calm Calm - N/A   Clear
9:15 PM 68.4 °F 49.6 °F 51% 30.00 in 10.0 mi Calm Calm - N/A   Clear
9:16 PM 68.2 °F 49.6 °F 51% 30.00 in 10.0 mi Calm Calm - N/A   Clear
9:39 PM 65.7 °F 51.6 °F 60% 30.01 in 10.0 mi Calm Calm - N/A   Clear
9:57 PM 62.8 °F 51.4 °F 66% 30.02 in 10.0 mi Calm Calm - N/A   Clear
10:15 PM 60.3 °F 52.3 °F 75% 30.03 in 10.0 mi Calm Calm - N/A   Clear
10:35 PM 61.2 °F 52.9 °F 74% 30.03 in 10.0 mi East 3.5 mph - N/A   Clear
10:36 PM 61.2 °F 52.9 °F 74% 30.03 in 10.0 mi East 3.5 mph - N/A   Clear
10:55 PM 59.0 °F 52.2 °F 78% 30.04 in 7.0 mi ENE 3.5 mph - N/A   Clear
11:00 PM 59.2 °F 52.0 °F 77% 30.04 in 10.0 mi Calm Calm - N/A   Clear
11:18 PM 59.2 °F 52.3 °F 78% 30.04 in 10.0 mi ESE 3.5 mph - N/A   Clear
11:36 PM 58.8 °F 52.0 °F 78% 30.04 in 10.0 mi Calm Calm - N/A   Clear
11:55 PM 57.0 °F 52.3 °F 84% 30.04 in 10.0 mi Calm Calm - N/A   Clear